| time (UTC) | temp C | wind direction | speed KPH | gust KPH | rain 1hr cm | rain 24hr cm | rain mn cm | humidity % | barometer mb |
| 20260506212025 | 6 | 310 | 6.4 | 19.3 | 0.03 | 1.32 | 1.17 | 95 | 1008.4 |
| 20260506211543 | 6 | 197 | 4.8 | 19.3 | 0.03 | 1.32 | 1.17 | 95 | 1008.3 |
| 20260506211026 | 6 | 327 | 6.4 | 19.3 | 0.05 | 1.32 | 1.17 | 95 | 1008.2 |
| 20260506210525 | 6 | 285 | 3.2 | 19.3 | 0.05 | 1.32 | 1.17 | 95 | 1008.2 |
| 20260506210051 | 6 | 334 | 4.8 | 19.3 | 0.05 | 1.32 | 1.17 | 95 | 1008.0 |
| 20260506205524 | 6 | 304 | 4.8 | 19.3 | 0.05 | 1.37 | 1.17 | 95 | 1008.0 |
| 20260506205023 | 6 | 289 | 4.8 | 19.3 | 0.05 | 1.37 | 1.17 | 95 | 1007.9 |
| 20260506204542 | 6 | 344 | 3.2 | 14.5 | 0.08 | 1.37 | 1.17 | 95 | 1007.8 |
| 20260506204026 | 7 | 273 | 1.6 | 6.4 | 0.08 | 1.37 | 1.17 | 95 | 1007.8 |
| 20260506203525 | 7 | 9 | 1.6 | 6.4 | 0.10 | 1.37 | 1.17 | 95 | 1007.6 |
| 20260506203045 | 7 | 317 | 1.6 | 6.4 | 0.10 | 1.37 | 1.17 | 96 | 1007.7 |
| 20260506202525 | 7 | 0 | 1.6 | 4.8 | 0.10 | 1.32 | 1.14 | 96 | 1007.7 |
| 20260506202025 | 6 | 0 | 0.0 | 6.4 | 0.10 | 1.32 | 1.14 | 95 | 1007.5 |
| 20260506201538 | 6 | 49 | 1.6 | 6.4 | 0.10 | 1.32 | 1.14 | 95 | 1007.7 |
| 20260506201024 | 6 | 0 | 1.6 | 4.8 | 0.10 | 1.32 | 1.12 | 95 | 1007.8 |
| 20260506200522 | 6 | 300 | 1.6 | 4.8 | 0.10 | 1.32 | 1.12 | 95 | 1007.7 |
| 20260506200044 | 6 | 346 | 1.6 | 8.0 | 0.10 | 1.32 | 1.12 | 95 | 1007.7 |
| 20260506195524 | 6 | 321 | 3.2 | 8.0 | 0.10 | 1.78 | 1.12 | 95 | 1007.6 |
| 20260506195027 | 6 | 326 | 3.2 | 8.0 | 0.08 | 1.75 | 1.09 | 95 | 1007.6 |
| 20260506194558 | 6 | 337 | 3.2 | 8.0 | 0.08 | 1.75 | 1.09 | 95 | 1007.6 |
| 20260506194024 | 6 | 283 | 1.6 | 6.4 | 0.08 | 1.75 | 1.09 | 95 | 1007.7 |
| 20260506193525 | 6 | 323 | 1.6 | 6.4 | 0.08 | 1.73 | 1.07 | 95 | 1007.6 |
| 20260506193040 | 6 | 315 | 3.2 | 6.4 | 0.08 | 1.73 | 1.07 | 95 | 1007.6 |
| 20260506192524 | 6 | 348 | 3.2 | 6.4 | 0.05 | 1.70 | 1.04 | 95 | 1007.6 |
| 20260506192024 | 6 | 326 | 3.2 | 6.4 | 0.05 | 1.70 | 1.04 | 95 | 1007.5 |
| 20260506191541 | 6 | 338 | 1.6 | 11.3 | 0.05 | 1.70 | 1.04 | 95 | 1007.4 |
| 20260506191024 | 6 | 338 | 3.2 | 11.3 | 0.03 | 1.68 | 1.02 | 95 | 1007.4 |
| 20260506190528 | 6 | 327 | 1.6 | 6.4 | 0.03 | 1.68 | 1.02 | 96 | 1007.3 |
| 20260506190043 | 6 | 327 | 3.2 | 6.4 | 0.03 | 1.68 | 1.02 | 95 | 1007.2 |
| 20260506185523 | 6 | 331 | 3.2 | 6.4 | 0.03 | 1.68 | 1.02 | 95 | 1007.2 |
| 20260506185021 | 6 | 360 | 1.6 | 4.8 | 0.03 | 1.68 | 1.02 | 95 | 1007.2 |
| 20260506184542 | 6 | 341 | 1.6 | 4.8 | 0.03 | 1.68 | 1.02 | 95 | 1007.2 |
| 20260506184024 | 6 | 352 | 1.6 | 4.8 | 0.03 | 1.68 | 1.02 | 95 | 1007.1 |
| 20260506183525 | 6 | 9 | 1.6 | 4.8 | 0.00 | 1.65 | 0.99 | 95 | 1007.1 |
| 20260506183046 | 6 | 355 | 1.6 | 4.8 | 0.03 | 1.65 | 0.99 | 96 | 1007.1 |
| 20260506182524 | 6 | 352 | 1.6 | 6.4 | 0.03 | 1.65 | 0.99 | 96 | 1006.9 |
| 20260506182024 | 6 | 342 | 1.6 | 6.4 | 0.03 | 1.65 | 0.99 | 95 | 1006.9 |
| 20260506181547 | 6 | 24 | 1.6 | 6.4 | 0.03 | 1.65 | 0.99 | 95 | 1007.0 |
| 20260506181024 | 6 | 326 | 1.6 | 6.4 | 0.03 | 1.65 | 0.99 | 95 | 1007.0 |
| 20260506180527 | 6 | 351 | 3.2 | 6.4 | 0.03 | 1.65 | 0.99 | 95 | 1007.0 |
| 20260506180048 | 6 | 340 | 3.2 | 6.4 | 0.05 | 1.65 | 0.99 | 95 | 1007.0 |
| 20260506175524 | 6 | 336 | 1.6 | 4.8 | 0.05 | 2.06 | 0.99 | 95 | 1006.9 |
| 20260506175023 | 6 | 333 | 1.6 | 4.8 | 0.05 | 2.06 | 0.99 | 95 | 1006.8 |
| 20260506174543 | 6 | 337 | 3.2 | 6.4 | 0.05 | 2.06 | 0.99 | 95 | 1006.8 |
| 20260506174025 | 6 | 334 | 1.6 | 6.4 | 0.05 | 2.06 | 0.99 | 96 | 1006.7 |
| 20260506173525 | 6 | 355 | 3.2 | 6.4 | 0.05 | 2.06 | 0.99 | 95 | 1006.8 |
| 20260506173050 | 6 | 355 | 3.2 | 6.4 | 0.03 | 2.03 | 0.97 | 95 | 1006.9 |
| 20260506172524 | 6 | 355 | 1.6 | 6.4 | 0.03 | 2.03 | 0.97 | 96 | 1006.8 |
| 20260506172024 | 6 | 346 | 1.6 | 4.8 | 0.05 | 2.03 | 0.97 | 95 | 1006.9 |
| 20260506171554 | 6 | 346 | 1.6 | 4.8 | 0.05 | 2.03 | 0.97 | 96 | 1006.8 |
| 20260506171024 | 6 | 333 | 0.0 | 6.4 | 0.05 | 2.03 | 0.97 | 96 | 1006.8 |
| 20260506170524 | 6 | 333 | 1.6 | 6.4 | 0.05 | 2.03 | 0.97 | 95 | 1006.9 |
| 20260506170047 | 6 | 355 | 1.6 | 4.8 | 0.03 | 2.01 | 0.94 | 95 | 1006.9 |
| 20260506165524 | 6 | 355 | 1.6 | 4.8 | 0.05 | 2.01 | 0.94 | 95 | 1007.0 |
| 20260506165024 | 5 | 355 | 1.6 | 6.4 | 0.05 | 2.01 | 0.94 | 95 | 1006.9 |
| 20260506164536 | 5 | 355 | 1.6 | 6.4 | 0.05 | 2.01 | 0.94 | 95 | 1006.9 |
| 20260506164023 | 5 | 352 | 3.2 | 8.0 | 0.10 | 2.01 | 0.94 | 95 | 1007.0 |
| 20260506163525 | 6 | 355 | 3.2 | 8.0 | 0.10 | 2.01 | 0.94 | 95 | 1007.0 |
| 20260506163048 | 6 | 342 | 1.6 | 4.8 | 0.13 | 2.01 | 0.94 | 95 | 1006.9 |
| 20260506162524 | 6 | 352 | 3.2 | 6.4 | 0.13 | 2.01 | 0.94 | 96 | 1006.8 |
| 20260506162027 | 6 | 355 | 1.6 | 6.4 | 0.10 | 1.98 | 0.91 | 95 | 1006.8 |
| 20260506161551 | 6 | 349 | 1.6 | 6.4 | 0.13 | 1.98 | 0.91 | 95 | 1006.9 |
| 20260506161024 | 5 | 334 | 3.2 | 6.4 | 0.13 | 1.98 | 0.91 | 95 | 1007.0 |
| 20260506160524 | 5 | 338 | 4.8 | 6.4 | 0.13 | 1.98 | 0.91 | 95 | 1007.0 |
| 20260506160048 | 5 | 20 | 3.2 | 6.4 | 0.15 | 1.98 | 0.91 | 95 | 1006.9 |
| 20260506155524 | 6 | 339 | 3.2 | 4.8 | 0.13 | 1.96 | 0.89 | 95 | 1007.0 |
| 20260506155028 | 5 | 355 | 1.6 | 6.4 | 0.13 | 1.96 | 0.89 | 95 | 1006.9 |
| 20260506154606 | 5 | 355 | 1.6 | 6.4 | 0.13 | 1.96 | 0.89 | 95 | 1006.9 |
| 20260506154025 | 6 | 348 | 1.6 | 6.4 | 0.10 | 1.91 | 0.84 | 95 | 1006.8 |
| 20260506153524 | 6 | 355 | 3.2 | 6.4 | 0.10 | 1.91 | 0.84 | 95 | 1006.9 |
| 20260506153038 | 6 | 329 | 3.2 | 6.4 | 0.08 | 1.88 | 0.81 | 95 | 1007.0 |
| 20260506152524 | 6 | 360 | 3.2 | 6.4 | 0.08 | 1.88 | 0.81 | 95 | 1006.9 |
| 20260506152026 | 6 | 10 | 3.2 | 6.4 | 0.08 | 1.88 | 0.81 | 95 | 1006.8 |
| 20260506151545 | 6 | 9 | 1.6 | 8.0 | 0.08 | 1.85 | 0.79 | 95 | 1006.7 |
| 20260506151028 | 6 | 346 | 4.8 | 8.0 | 0.08 | 1.85 | 0.79 | 95 | 1006.8 |
| 20260506150524 | 6 | 341 | 3.2 | 6.4 | 0.08 | 1.83 | 0.76 | 95 | 1006.8 |
| 20260506150050 | 6 | 340 | 3.2 | 6.4 | 0.08 | 1.83 | 0.76 | 95 | 1006.7 |
| 20260506145529 | 6 | 329 | 3.2 | 6.4 | 0.10 | 1.83 | 0.76 | 94 | 1006.6 |
| 20260506145024 | 6 | 9 | 3.2 | 6.4 | 0.13 | 1.83 | 0.76 | 94 | 1006.4 |
| 20260506144558 | 7 | 336 | 0.0 | 4.8 | 0.15 | 1.83 | 0.76 | 94 | 1006.6 |
| 20260506144025 | 7 | 0 | 0.0 | 3.2 | 0.15 | 1.80 | 0.74 | 95 | 1006.6 |
| 20260506143521 | 7 | 0 | 0.0 | 4.8 | 0.18 | 1.80 | 0.74 | 94 | 1006.5 |
| 20260506143041 | 7 | 336 | 1.6 | 4.8 | 0.20 | 1.80 | 0.74 | 94 | 1006.7 |
| 20260506142524 | 8 | 336 | 1.6 | 6.4 | 0.23 | 1.80 | 0.74 | 94 | 1006.6 |
| 20260506142023 | 8 | 325 | 1.6 | 6.4 | 0.25 | 1.80 | 0.74 | 95 | 1006.7 |
| 20260506141536 | 8 | 9 | 1.6 | 6.4 | 0.25 | 1.78 | 0.71 | 96 | 1006.7 |
| 20260506141026 | 8 | 171 | 0.0 | 6.4 | 0.30 | 1.78 | 0.71 | 96 | 1006.7 |
| 20260506140525 | 8 | 171 | 0.0 | 6.4 | 0.33 | 1.75 | 0.69 | 96 | 1006.9 |
| 20260506140056 | 8 | 171 | 1.6 | 6.4 | 0.36 | 1.75 | 0.69 | 96 | 1006.7 |
| 20260506135524 | 8 | 171 | 3.2 | 6.4 | 0.36 | 1.73 | 0.66 | 96 | 1006.7 |
| 20260506135025 | 8 | 171 | 0.0 | 3.2 | 0.36 | 1.70 | 0.64 | 96 | 1006.9 |
| 20260506134548 | 7 | 0 | 0.0 | 6.4 | 0.30 | 1.65 | 0.58 | 96 | 1007.0 |
| 20260506134024 | 7 | 0 | 0.0 | 6.4 | 0.33 | 1.65 | 0.58 | 96 | 1006.9 |
| 20260506133524 | 7 | 255 | 0.0 | 4.8 | 0.30 | 1.63 | 0.56 | 95 | 1006.8 |
| 20260506133047 | 7 | 255 | 1.6 | 4.8 | 0.28 | 1.60 | 0.53 | 96 | 1007.0 |
| 20260506132522 | 7 | 0 | 0.0 | 11.3 | 0.25 | 1.57 | 0.51 | 95 | 1007.0 |
| 20260506132025 | 7 | 244 | 1.6 | 11.3 | 0.23 | 1.55 | 0.48 | 95 | 1007.2 |
| 20260506131540 | 7 | 275 | 1.6 | 12.9 | 0.20 | 1.47 | 0.43 | 95 | 1007.2 |
| 20260506131024 | 7 | 308 | 1.6 | 12.9 | 0.15 | 1.45 | 0.38 | 95 | 1007.3 |
| 20260506130525 | 7 | 288 | 0.0 | 4.8 | 0.15 | 1.42 | 0.36 | 95 | 1007.2 |
| 20260506130043 | 8 | 271 | 0.0 | 4.8 | 0.13 | 1.40 | 0.33 | 96 | 1007.1 |
| 20260506125523 | 7 | 271 | 0.0 | 4.8 | 0.10 | 1.37 | 0.30 | 96 | 1006.9 |
| 20260506125021 | 7 | 271 | 1.6 | 4.8 | 0.10 | 1.32 | 0.28 | 96 | 1006.9 |
| 20260506124536 | 7 | 0 | 1.6 | 3.2 | 0.10 | 1.32 | 0.28 | 95 | 1006.8 |
| 20260506124025 | 7 | 0 | 0.0 | 3.2 | 0.08 | 1.32 | 0.25 | 95 | 1006.7 |
| 20260506123525 | 7 | 0 | 0.0 | 3.2 | 0.08 | 1.32 | 0.25 | 95 | 1006.7 |
| 20260506123047 | 7 | 134 | 1.6 | 3.2 | 0.10 | 1.32 | 0.25 | 96 | 1006.8 |
| 20260506122526 | 7 | 134 | 1.6 | 3.2 | 0.10 | 1.32 | 0.25 | 95 | 1006.8 |
| 20260506122024 | 7 | 134 | 0.0 | 3.2 | 0.10 | 1.32 | 0.25 | 95 | 1006.9 |
| 20260506121541 | 7 | 0 | 0.0 | 4.8 | 0.10 | 1.30 | 0.23 | 95 | 1006.9 |
| 20260506121024 | 7 | 0 | 0.0 | 4.8 | 0.10 | 1.30 | 0.23 | 95 | 1007.0 |
| 20260506120524 | 7 | 134 | 1.6 | 4.8 | 0.08 | 1.27 | 0.20 | 95 | 1006.9 |
| 20260506120046 | 7 | 134 | 1.6 | 4.8 | 0.08 | 1.27 | 0.20 | 95 | 1007.2 |
| 20260506115524 | 7 | 134 | 1.6 | 4.8 | 0.08 | 1.27 | 0.20 | 95 | 1007.2 |
| 20260506115024 | 7 | 127 | 1.6 | 4.8 | 0.05 | 1.24 | 0.18 | 95 | 1007.2 |
| 20260506114539 | 7 | 127 | 1.6 | 4.8 | 0.08 | 1.24 | 0.18 | 95 | 1007.3 |
| 20260506114028 | 7 | 127 | 1.6 | 4.8 | 0.08 | 1.24 | 0.18 | 95 | 1007.3 |
| 20260506113526 | 7 | 127 | 1.6 | 4.8 | 0.08 | 1.24 | 0.18 | 95 | 1007.3 |
| 20260506113049 | 7 | 69 | 1.6 | 4.8 | 0.05 | 1.22 | 0.15 | 95 | 1007.5 |
| 20260506112524 | 7 | 69 | 0.0 | 4.8 | 0.05 | 1.22 | 0.15 | 95 | 1007.5 |
| 20260506112114 | 7 | 0 | 1.6 | 4.8 | 0.05 | 1.22 | 0.15 | 95 | 1007.7 |
| 20260506111542 | 7 | 57 | 0.0 | 3.2 | 0.03 | 1.19 | 0.13 | 95 | 1007.8 |
| 20260506111021 | 7 | 57 | 0.0 | 8.0 | 0.03 | 1.19 | 0.13 | 95 | 1007.8 |
| 20260506110521 | 7 | 0 | 3.2 | 8.0 | 0.05 | 1.19 | 0.13 | 95 | 1007.8 |
| 20260506110043 | 7 | 360 | 0.0 | 8.0 | 0.05 | 1.19 | 0.13 | 95 | 1007.8 |
| 20260506105524 | 7 | 360 | 1.6 | 8.0 | 0.05 | 1.19 | 0.13 | 95 | 1007.7 |
| 20260506105024 | 7 | 9 | 3.2 | 8.0 | 0.05 | 1.19 | 0.13 | 95 | 1007.5 |
| 20260506104546 | 7 | 360 | 3.2 | 8.0 | 0.03 | 1.17 | 0.10 | 95 | 1007.5 |
| 20260506104024 | 7 | 360 | 0.0 | 8.0 | 0.03 | 1.17 | 0.10 | 95 | 1007.5 |
| 20260506103524 | 7 | 11 | 3.2 | 6.4 | 0.03 | 1.17 | 0.10 | 95 | 1007.5 |
| 20260506103042 | 7 | 355 | 1.6 | 4.8 | 0.05 | 1.17 | 0.10 | 95 | 1007.6 |
| 20260506102525 | 7 | 355 | 1.6 | 4.8 | 0.05 | 1.17 | 0.10 | 95 | 1007.8 |
| 20260506102024 | 7 | 352 | 1.6 | 4.8 | 0.05 | 1.17 | 0.10 | 95 | 1007.7 |
| 20260506101545 | 7 | 352 | 1.6 | 3.2 | 0.08 | 1.17 | 0.10 | 95 | 1007.8 |
| 20260506101023 | 7 | 20 | 0.0 | 6.4 | 0.08 | 1.17 | 0.10 | 95 | 1007.5 |
| 20260506100523 | 7 | 0 | 0.0 | 6.4 | 0.05 | 1.14 | 0.08 | 95 | 1007.6 |
| 20260506100043 | 7 | 0 | 0.0 | 8.0 | 0.05 | 1.14 | 0.08 | 95 | 1007.5 |
| 20260506095521 | 7 | 360 | 3.2 | 8.0 | 0.05 | 1.14 | 0.08 | 95 | 1007.4 |
| 20260506095024 | 7 | 360 | 1.6 | 8.0 | 0.08 | 1.14 | 0.08 | 95 | 1007.5 |
| 20260506094539 | 7 | 336 | 3.2 | 8.0 | 0.08 | 1.14 | 0.08 | 95 | 1007.6 |
| 20260506094023 | 7 | 10 | 1.6 | 6.4 | 0.08 | 1.14 | 0.08 | 95 | 1007.7 |
| 20260506093524 | 7 | 352 | 1.6 | 6.4 | 0.08 | 1.14 | 0.08 | 95 | 1007.8 |
| 20260506093039 | 7 | 338 | 3.2 | 6.4 | 0.05 | 1.12 | 0.05 | 95 | 1007.8 |
| 20260506092527 | 7 | 338 | 1.6 | 6.4 | 0.05 | 1.12 | 0.05 | 95 | 1007.8 |
| 20260506092022 | 7 | 338 | 1.6 | 6.4 | 0.05 | 1.12 | 0.05 | 94 | 1007.8 |
| 20260506091537 | 7 | 317 | 1.6 | 4.8 | 0.03 | 1.09 | 0.03 | 94 | 1007.9 |
| 20260506091023 | 7 | 340 | 1.6 | 4.8 | 0.03 | 1.09 | 0.03 | 94 | 1007.8 |
| 20260506090526 | 7 | 323 | 1.6 | 9.7 | 0.03 | 1.09 | 0.03 | 94 | 1007.8 |
| 20260506090043 | 7 | 300 | 1.6 | 9.7 | 0.03 | 1.09 | 0.03 | 95 | 1007.8 |
| 20260506085523 | 7 | 43 | 1.6 | 9.7 | 0.00 | 1.07 | 0.00 | 95 | 1007.7 |
| 20260506085024 | 7 | 261 | 4.8 | 9.7 | 0.00 | 1.07 | 0.00 | 95 | 1007.8 |
| 20260506084543 | 7 | 275 | 4.8 | 9.7 | 0.00 | 1.07 | 0.00 | 95 | 1008.0 |
| 20260506084023 | 7 | 0 | 3.2 | 6.4 | 0.00 | 1.07 | 0.00 | 95 | 1008.0 |
| 20260506083524 | 7 | 84 | 0.0 | 3.2 | 0.00 | 1.07 | 0.00 | 95 | 1008.0 |
| 20260506083040 | 7 | 84 | 0.0 | 4.8 | 0.00 | 1.07 | 0.00 | 95 | 1008.0 |
| 20260506082521 | 7 | 84 | 1.6 | 4.8 | 0.00 | 1.07 | 0.00 | 95 | 1008.0 |
| 20260506082022 | 7 | 84 | 0.0 | 4.8 | 0.00 | 1.07 | 0.00 | 94 | 1007.7 |
| 20260506081536 | 7 | 84 | 1.6 | 4.8 | 0.00 | 1.07 | 0.00 | 95 | 1007.7 |
| 20260506081023 | 7 | 94 | 1.6 | 4.8 | 0.00 | 1.07 | 0.00 | 94 | 1007.9 |
| 20260506080524 | 7 | 0 | 0.0 | 6.4 | 0.00 | 1.07 | 0.00 | 94 | 1007.8 |
| 20260506073521 | 7 | 72 | 4.8 | 12.9 | 0.00 | 1.07 | 0.00 | 94 | 1008.1 |
| 20260506073037 | 7 | 87 | 6.4 | 12.9 | 0.00 | 1.07 | 0.00 | 94 | 1008.0 |
| 20260506072521 | 7 | 88 | 6.4 | 8.0 | 0.00 | 1.07 | 0.00 | 94 | 1008.2 |
| 20260506072020 | 7 | 50 | 3.2 | 8.0 | 0.00 | 1.07 | 0.00 | 94 | 1008.5 |
| 20260506071539 | 7 | 42 | 1.6 | 8.0 | 0.00 | 1.07 | 0.00 | 94 | 1008.5 |
| 20260506071026 | 7 | 40 | 3.2 | 8.0 | 0.00 | 1.07 | 0.00 | 94 | 1008.7 |
| 20260506070525 | 7 | 344 | 3.2 | 4.8 | 0.00 | 1.07 | 0.00 | 94 | 1009.1 |
| 20260506062024 | 7 | 30 | 0.0 | 6.4 | 0.00 | 1.07 | 0.00 | 93 | 1009.2 |
| 20260506061542 | 7 | 0 | 1.6 | 6.4 | 0.00 | 1.07 | 0.00 | 93 | 1009.1 |
| 20260506061020 | 7 | 12 | 1.6 | 6.4 | 0.00 | 1.07 | 0.00 | 93 | 1009.2 |
| 20260506060524 | 7 | 19 | 1.6 | 4.8 | 0.00 | 1.07 | 0.00 | 93 | 1009.4 |
| 20260506051025 | 7 | 0 | 0.0 | 4.8 | 0.00 | 1.07 | 0.00 | 93 | 1010.0 |
| 20260506050528 | 7 | 9 | 0.0 | 3.2 | 0.00 | 1.07 | 0.00 | 93 | 1009.9 |
| 20260506045025 | 7 | 9 | 1.6 | 4.8 | 0.00 | 1.07 | 0.00 | 93 | 1010.0 |
| 20260506044543 | 7 | 0 | 0.0 | 3.2 | 0.00 | 1.07 | 0.00 | 93 | 1010.2 |
| 20260506044025 | 7 | 0 | 0.0 | 3.2 | 0.00 | 1.07 | 0.00 | 93 | 1010.1 |
| 20260506043525 | 7 | 9 | 0.0 | 3.2 | 0.00 | 1.07 | 0.00 | 93 | 1010.0 |
| 20260506043040 | 7 | 0 | 0.0 | 3.2 | 0.00 | 1.07 | 0.00 | 92 | 1010.0 |
| 20260506042526 | 7 | 0 | 0.0 | 4.8 | 0.00 | 1.07 | 0.00 | 92 | 1010.0 |
| 20260506042025 | 7 | 0 | 0.0 | 4.8 | 0.00 | 1.07 | 0.00 | 92 | 1010.0 |
| 20260506041548 | 7 | 9 | 1.6 | 4.8 | 0.00 | 1.07 | 0.00 | 92 | 1010.1 |
| 20260506041025 | 7 | 0 | 1.6 | 3.2 | 0.00 | 1.07 | 0.00 | 92 | 1010.1 |
| 20260506040526 | 7 | 0 | 0.0 | 3.2 | 0.00 | 1.07 | 0.00 | 92 | 1010.2 |
| 20260506040047 | 7 | 342 | 1.6 | 4.8 | 0.00 | 1.07 | 0.00 | 92 | 1010.4 |
| 20260506035525 | 7 | 0 | 1.6 | 4.8 | 0.00 | 1.07 | 1.07 | 91 | 1010.3 |
| 20260506035026 | 7 | 342 | 0.0 | 4.8 | 0.00 | 1.07 | 1.07 | 91 | 1010.4 |
| 20260506034545 | 7 | 342 | 3.2 | 4.8 | 0.00 | 1.07 | 1.07 | 91 | 1010.4 |
| 20260506034026 | 8 | 338 | 3.2 | 4.8 | 0.00 | 1.07 | 1.07 | 91 | 1010.4 |
| 20260506033526 | 8 | 338 | 0.0 | 4.8 | 0.00 | 1.07 | 1.07 | 91 | 1010.3 |
| 20260506033044 | 8 | 338 | 1.6 | 4.8 | 0.00 | 1.07 | 1.07 | 91 | 1010.3 |
| 20260506032525 | 8 | 338 | 3.2 | 6.4 | 0.00 | 1.07 | 1.07 | 91 | 1010.4 |
| 20260506032026 | 8 | 333 | 3.2 | 6.4 | 0.00 | 1.07 | 1.07 | 90 | 1010.4 |
| 20260506031544 | 8 | 336 | 1.6 | 4.8 | 0.00 | 1.07 | 1.07 | 90 | 1010.5 |
| 20260506031026 | 8 | 330 | 1.6 | 4.8 | 0.00 | 1.07 | 1.07 | 90 | 1010.4 |
| 20260506030525 | 8 | 343 | 1.6 | 6.4 | 0.00 | 1.07 | 1.07 | 90 | 1010.5 |
| 20260506030044 | 8 | 343 | 3.2 | 6.4 | 0.00 | 1.07 | 1.07 | 90 | 1010.7 |
| 20260506025525 | 8 | 343 | 3.2 | 6.4 | 0.00 | 1.07 | 1.07 | 90 | 1010.7 |
| 20260506025029 | 8 | 338 | 3.2 | 4.8 | 0.00 | 1.07 | 1.07 | 90 | 1010.5 |
| 20260506024548 | 8 | 338 | 3.2 | 4.8 | 0.00 | 1.07 | 1.07 | 89 | 1010.7 |
| 20260506024027 | 9 | 333 | 1.6 | 6.4 | 0.00 | 1.07 | 1.07 | 90 | 1010.8 |
| 20260506023526 | 9 | 333 | 1.6 | 6.4 | 0.00 | 1.07 | 1.07 | 90 | 1010.7 |
| 20260506023054 | 9 | 355 | 1.6 | 6.4 | 0.00 | 1.07 | 1.07 | 90 | 1010.7 |
| 20260506022524 | 10 | 5 | 1.6 | 4.8 | 0.00 | 1.07 | 1.07 | 91 | 1010.7 |
| 20260506022026 | 10 | 344 | 1.6 | 4.8 | 0.00 | 1.07 | 1.07 | 91 | 1010.5 |
| 20260506021554 | 10 | 352 | 1.6 | 4.8 | 0.00 | 1.07 | 1.07 | 91 | 1010.3 |
| 20260506021028 | 10 | 332 | 0.0 | 3.2 | 0.00 | 1.07 | 1.07 | 91 | 1010.3 |
| 20260506020526 | 10 | 0 | 0.0 | 1.6 | 0.00 | 1.07 | 1.07 | 91 | 1010.4 |
| 20260506020040 | 10 | 0 | 0.0 | 3.2 | 0.00 | 1.07 | 1.07 | 91 | 1010.2 |
| 20260506015525 | 10 | 0 | 0.0 | 4.8 | 0.00 | 1.07 | 1.07 | 90 | 1010.2 |
| 20260506015029 | 10 | 0 | 0.0 | 4.8 | 0.00 | 1.07 | 1.07 | 90 | 1010.1 |
| 20260506014545 | 10 | 332 | 1.6 | 4.8 | 0.00 | 1.07 | 1.07 | 90 | 1009.9 |
| 20260506014025 | 10 | 328 | 1.6 | 4.8 | 0.00 | 1.07 | 1.07 | 90 | 1009.8 |
| 20260506013524 | 10 | 11 | 1.6 | 4.8 | 0.00 | 1.07 | 1.07 | 90 | 1009.8 |
| 20260506013046 | 10 | 12 | 1.6 | 4.8 | 0.00 | 1.07 | 1.07 | 90 | 1009.7 |
| 20260506012527 | 10 | 331 | 1.6 | 4.8 | 0.00 | 1.07 | 1.07 | 90 | 1009.9 |
| 20260506012025 | 10 | 331 | 3.2 | 6.4 | 0.03 | 1.07 | 1.07 | 90 | 1009.8 |
| 20260506011542 | 10 | 331 | 3.2 | 8.0 | 0.03 | 1.07 | 1.07 | 90 | 1009.9 |
| 20260506011025 | 10 | 331 | 4.8 | 8.0 | 0.03 | 1.07 | 1.07 | 90 | 1009.8 |
| 20260506010526 | 10 | 336 | 4.8 | 9.7 | 0.03 | 1.07 | 1.07 | 90 | 1009.7 |
| 20260506010049 | 11 | 323 | 3.2 | 9.7 | 0.03 | 1.07 | 1.07 | 90 | 1009.8 |
| 20260506005525 | 11 | 331 | 4.8 | 9.7 | 0.03 | 1.07 | 1.07 | 90 | 1009.4 |
| 20260506005024 | 11 | 327 | 3.2 | 9.7 | 0.03 | 1.07 | 1.07 | 91 | 1009.3 |
| 20260506004548 | 11 | 331 | 4.8 | 9.7 | 0.03 | 1.07 | 1.07 | 90 | 1009.4 |
| 20260506004024 | 12 | 342 | 4.8 | 9.7 | 0.03 | 1.07 | 1.07 | 91 | 1009.5 |
| 20260506003525 | 12 | 302 | 4.8 | 9.7 | 0.05 | 1.07 | 1.07 | 91 | 1009.6 |
| 20260506003045 | 12 | 331 | 6.4 | 16.1 | 0.10 | 1.07 | 1.07 | 90 | 1009.4 |
| 20260506002524 | 12 | 341 | 4.8 | 16.1 | 0.18 | 1.07 | 1.07 | 90 | 1009.2 |
| 20260506002025 | 12 | 322 | 6.4 | 16.1 | 0.15 | 1.04 | 1.04 | 90 | 1009.5 |
| 20260506001547 | 13 | 348 | 6.4 | 14.5 | 0.15 | 1.04 | 1.04 | 90 | 1008.8 |
| 20260506001024 | 13 | 349 | 4.8 | 14.5 | 0.15 | 1.04 | 1.04 | 89 | 1008.4 |
| 20260506000526 | 13 | 24 | 6.4 | 12.9 | 0.15 | 1.04 | 1.04 | 88 | 1008.2 |
| 20260506000045 | 15 | 334 | 4.8 | 8.0 | 0.15 | 1.04 | 1.04 | 90 | 1008.1 |
| 20260505235523 | 15 | 169 | 0.0 | 3.2 | 0.15 | 1.04 | 1.04 | 90 | 1007.8 |
| 20260505235027 | 15 | 0 | 0.0 | 3.2 | 0.15 | 1.04 | 1.04 | 89 | 1007.8 |
| 20260505234602 | 15 | 0 | 0.0 | 14.5 | 0.15 | 1.04 | 1.04 | 88 | 1007.9 |
| 20260505234023 | 15 | 0 | 0.0 | 24.1 | 0.15 | 1.04 | 1.04 | 88 | 1007.8 |
| 20260505233525 | 15 | 242 | 8.0 | 24.1 | 0.13 | 1.02 | 1.02 | 87 | 1007.9 |
| 20260505233041 | 15 | 182 | 16.1 | 24.1 | 0.05 | 0.94 | 0.94 | 85 | 1008.1 |
| 20260505232526 | 16 | 192 | 12.9 | 20.9 | 0.00 | 0.89 | 0.89 | 84 | 1007.7 |
| 20260505232026 | 16 | 181 | 6.4 | 11.3 | 0.00 | 0.89 | 0.89 | 83 | 1007.5 |
| 20260505231545 | 16 | 185 | 4.8 | 8.0 | 0.00 | 0.89 | 0.89 | 82 | 1007.1 |
| 20260505231025 | 16 | 0 | 0.0 | 4.8 | 0.00 | 0.89 | 0.89 | 81 | 1007.1 |
| 20260505230525 | 16 | 197 | 1.6 | 4.8 | 0.00 | 0.89 | 0.89 | 80 | 1007.0 |
| 20260505230046 | 16 | 220 | 0.0 | 6.4 | 0.00 | 0.89 | 0.89 | 80 | 1007.0 |
| 20260505225525 | 17 | 220 | 1.6 | 8.0 | 0.00 | 0.89 | 0.89 | 80 | 1007.0 |
| 20260505225025 | 17 | 202 | 1.6 | 8.0 | 0.00 | 0.89 | 0.89 | 80 | 1007.1 |
| 20260505224547 | 17 | 232 | 4.8 | 12.9 | 0.00 | 0.89 | 0.89 | 79 | 1007.2 |
| 20260505224025 | 17 | 197 | 4.8 | 12.9 | 0.00 | 0.89 | 0.89 | 79 | 1007.1 |
| 20260505223529 | 17 | 221 | 6.4 | 12.9 | 0.00 | 0.89 | 0.89 | 78 | 1007.1 |
| 20260505223047 | 17 | 219 | 1.6 | 11.3 | 0.00 | 0.89 | 0.89 | 79 | 1007.1 |
| 20260505222523 | 17 | 217 | 4.8 | 12.9 | 0.00 | 0.89 | 0.89 | 79 | 1007.1 |
| 20260505222024 | 17 | 203 | 3.2 | 12.9 | 0.00 | 0.89 | 0.89 | 79 | 1007.1 |
| 20260505221545 | 17 | 229 | 3.2 | 14.5 | 0.00 | 0.89 | 0.89 | 79 | 1007.2 |
| 20260505221029 | 17 | 231 | 4.8 | 14.5 | 0.00 | 0.89 | 0.89 | 79 | 1007.2 |
| 20260505220523 | 17 | 215 | 4.8 | 11.3 | 0.00 | 0.89 | 0.89 | 78 | 1007.2 |
| 20260505220045 | 17 | 202 | 6.4 | 12.9 | 0.00 | 0.89 | 0.89 | 79 | 1007.1 |
| 20260505215525 | 17 | 198 | 6.4 | 12.9 | 0.00 | 0.89 | 0.89 | 79 | 1006.9 |
| 20260505215025 | 17 | 176 | 4.8 | 11.3 | 0.00 | 0.89 | 0.89 | 79 | 1006.8 |
| 20260505214601 | 17 | 221 | 3.2 | 12.9 | 0.00 | 0.89 | 0.89 | 80 | 1006.7 |
| 20260505214022 | 16 | 219 | 8.0 | 12.9 | 0.00 | 0.89 | 0.89 | 78 | 1006.6 |
| 20260505213523 | 16 | 227 | 4.8 | 12.9 | 0.03 | 0.89 | 0.89 | 79 | 1006.5 |
| 20260505213046 | 16 | 207 | 4.8 | 12.9 | 0.03 | 0.89 | 0.89 | 79 | 1006.5 |
| 20260505212527 | 16 | 219 | 4.8 | 12.9 | 0.03 | 0.89 | 0.89 | 79 | 1006.5 |